This is the latest recevied weather packets stored in our database for station/object N5RPG. If no packets are shown the sender has not sent any weather packets the latest 10 day(s).
| Time | Temp. | Humidity | Pressure | Rain* | Wind** | Luminosity | Snow |
|---|---|---|---|---|---|---|---|
| 1777850075 | 27.78° C | 35% | 1017.7 hPa | 0 mm | - | 235 W/m² | - |
| 1777849771 | 27.22° C | 35% | 1017.8 hPa | 0 mm | - | 254 W/m² | - |
| 1777849468 | 27.22° C | 35% | 1017.8 hPa | 0 mm | - | 266 W/m² | - |
| 1777849166 | 27.22° C | 34% | 1017.7 hPa | 0 mm | - | 252 W/m² | - |
| 1777848862 | 27.78° C | 32% | 1017.8 hPa | 0 mm | - | 309 W/m² | - |
| 1777848558 | 27.78° C | 33% | 1017.9 hPa | 0 mm | - | 323 W/m² | - |
| 1777848255 | 27.78° C | 35% | 1017.7 hPa | 0 mm | - | 345 W/m² | - |
| 1777847953 | 27.78° C | 36% | 1017.8 hPa | 0 mm | - | 364 W/m² | - |
| 1777847651 | 27.78° C | 34% | 1018 hPa | 0 mm | - | 387 W/m² | - |
| 1777847351 | 28.33° C | 35% | 1017.8 hPa | 0 mm | - | 393 W/m² | - |
| 1777847049 | 28.89° C | 34% | 1018 hPa | 0 mm | - | 445 W/m² | - |
| 1777846747 | 27.78° C | 35% | 1017.9 hPa | 0 mm | - | 503 W/m² | - |
| 1777846446 | 26.67° C | 35% | 1018.2 hPa | 0 mm | - | 526 W/m² | - |
| 1777846141 | 27.22° C | 36% | 1018.3 hPa | 0 mm | - | 146 W/m² | - |
| 1777845838 | 28.33° C | 35% | 1018.3 hPa | 0 mm | - | 410 W/m² | - |
| 1777845535 | 28.89° C | 33% | 1018.3 hPa | 0 mm | - | 535 W/m² | - |
| 1777845232 | 28.33° C | 35% | 1018.2 hPa | 0 mm | - | 569 W/m² | - |
| 1777844929 | 27.78° C | 36% | 1018.3 hPa | 0 mm | - | 585 W/m² | - |
| 1777844627 | 26.67° C | 35% | 1018.5 hPa | 0 mm | - | 626 W/m² | - |
| 1777844324 | 27.78° C | 35% | 1018.8 hPa | 0 mm | - | 440 W/m² | - |
| 1777844022 | 27.22° C | 36% | 1018.5 hPa | 0 mm | - | 636 W/m² | - |
| 1777843719 | 28.33° C | 33% | 1018.5 hPa | 0 mm | - | 142 W/m² | - |
| 1777843417 | 28.89° C | 33% | 1018.6 hPa | 0 mm | - | 645 W/m² | - |
| 1777843114 | 27.78° C | 35% | 1018.8 hPa | 0 mm | - | 679 W/m² | - |
| 1777842810 | 27.78° C | 34% | 1018.9 hPa | 0 mm | - | 331 W/m² | - |
* Rain latest hour (hover to see other rain measurements)
** Current wind speed in m/s (hover to see current wind gust speed)